Location: Feigenhofen
(48.4939°N, 10.7793°E)
Time: 23:10:38
(UTC+00:00)

Helios 1B rocket - Pass Details

Date: 26 May 2022
Orbit: 569 x 578 km, 98.2° (Epoch: 24 June)

Event Time Altitude Azimuth Distance (km) Brightness Sun altitude
Rises 02:37:34 0° 13° (NNE) 2,786 7.0 -6.9°
Reaches altitude 10° 02:39:43 10° 14° (NNE) 1,883 6.0 -6.6°
Maximum altitude 02:43:48 89° 296° (WNW) 577 2.4 -6.1°
Drops below altitude 10° 02:47:51 10° 196° (SSW) 1,868 4.5 -5.6°
Enters shadow 02:49:29 - 196° (SSW) 2,553 5.2 -5.4°
